Location: Unspecified
(44.0704°N, 88.6889°W)
Time: 19:05:41
(UTC+02:00)

Transit 2A - Pass Details

Date: 19 June 2019
Orbit: 600 x 958 km, 66.7° (Epoch: 19 October)

Event Time Altitude Azimuth Distance (km) Brightness Sun altitude
Rises 17:51:35 0° 326° (NW) 3,446 9.1 57.2°
Reaches altitude 10° 17:54:12 10° 324° (NW) 2,452 8.4 57.6°
Maximum altitude 17:59:46 69° 243° (WSW) 829 7.0 58.5°
Drops below altitude 10° 18:04:46 10° 160° (SSE) 2,195 8.9 59.3°
Sets 18:06:59 0° 158° (SSE) 3,058 9.5 59.6°
